Flag for U.S.A. Weather past 2 weeks in Pensacola, Florida, U.S.A.

Now
81 °F

Clear.


Feels Like: 88 °F
Forecast: 77 / 90 °F
Wind: 9 mph from West

Location: Pensacola Regional Airport

Current Time: Jul 28, 2014 at 2:03:04 AM

Latest Report: Jul 28, 2014 at 12:53 AM


Visibility: 10 mi

Pressure: 30.02 "Hg

Humidity: 88%

Dew point: 77 °F

Location of PensacolaLocation

Historic Weather in Pensacola — Graph

°F

Pensacola temperature yesterday

Maximum temperature yesterday: 91 °F (at 2:53 PM)
Minimum temperature yesterday: 78 °F (at 3:53 AM)
Average temperature yesterday: 83 °F

Past Weeks' High & Low Weather Summary

 TemperatureHumidityPressure
High91 °F (Jul 27, 2:53 PM)100% (Jul 18, 6:53 PM)30.13 "Hg (Jul 18, 6:53 PM)
Low66 °F (Jul 17, 5:53 AM)39% (Jul 16, 4:53 PM)29.88 "Hg (Jul 16, 2:53 AM)
Average79 °F81%30.01 "Hg
* Reported Jul 13 12:53 AM — Jul 28 12:53 AM, Pensacola, Weather by CustomWeather, © 2014

Note: Actual official high and low records may vary slightly from our data, if they occured in-between our weather recording intervals... More about our weather records

Advertising

Pensacola weather history for previous 24 hours

 ConditionsComfort  
Time TempWeatherWind HumidityBarometerVisibility
12:53 AM
Jul 28
81 °FClear.9 mph88%30.02 "Hg10 mi
11:53 PM
Jul 27
81 °FClear.8 mph85%30.03 "Hg10 mi
10:53 PM81 °FClear.9 mph85%30.04 "Hg10 mi
9:53 PM81 °FClear.10 mph85%30.04 "Hg10 mi
8:53 PM82 °FClear.9 mph79%30.02 "Hg10 mi
7:53 PM83 °FClear.9 mph77%30.01 "Hg10 mi
6:53 PM85 °FSunny.14 mph72%30.00 "Hg10 mi
5:53 PM87 °FSunny.16 mph65%30.00 "Hg10 mi
4:53 PM89 °FPassing clouds.16 mph65%30.00 "Hg10 mi
3:53 PM91 °FPassing clouds.10 mph56%30.01 "Hg10 mi
2:53 PM91 °FScattered clouds.9 mph54%30.03 "Hg10 mi
1:53 PM89 °FPartly sunny.7 mph59%30.04 "Hg10 mi
12:53 PM90 °FScattered clouds.9 mph57%30.07 "Hg10 mi
11:53 AM88 °FScattered clouds.9 mph63%30.09 "Hg10 mi
10:53 AM86 °FBroken clouds.3 mph72%30.09 "Hg10 mi
9:53 AM84 °FSunny.7 mph77%30.09 "Hg10 mi
8:53 AM82 °FSunny.10 mph85%30.09 "Hg10 mi
7:53 AM81 °FSunny.12 mph88%30.07 "Hg10 mi
6:53 AM79 °FSunny.9 mph94%30.05 "Hg10 mi
5:53 AM78 °FClear.6 mph96%30.04 "Hg10 mi
4:53 AM78 °FClear.5 mph96%30.03 "Hg10 mi
3:53 AM78 °FClear.7 mph96%30.03 "Hg10 mi
2:53 AM79 °FClear.7 mph94%30.03 "Hg10 mi
Weather by CustomWeather, © 2014

See weather overviewHow to use our weather pages